Flag for U.S.A. Weather past 2 weeks in Lynchburg, Virginia, U.S.A.

Now
84 °F

Sunny.


Feels Like: 83 °F
Forecast: 64 / 86 °F
Wind: 8 mph from West

Location: Lynchburg Regional Airport

Current Time: Jul 31, 2015 at 3:50:33 PM

Latest Report: Jul 31, 2015 at 2:54 PM


Visibility: 10 mi

Pressure: 29.96 "Hg

Humidity: 36%

Dew point: 54 °F

Location of LynchburgLocation

Historic Weather in Lynchburg — Graph

°F

Lynchburg temperature yesterday

Maximum temperature yesterday: 88 °F (at 4:54 PM)
Minimum temperature yesterday: 74 °F (at 10:54 PM)
Average temperature yesterday: 82 °F

Past Weeks' High & Low Weather Summary

 TemperatureHumidityPressure
High90 °F (Jul 19, 4:54 PM)100% (Jul 17, 4:54 AM)30.13 "Hg (Jul 17, 4:54 AM)
Low63 °F (Jul 16, 11:54 PM)29% (Jul 22, 1:54 PM)29.71 "Hg (Jul 21, 2:54 PM)
Average76 °F76%29.95 "Hg
* Reported Jul 16 2:54 PM — Jul 31 2:54 PM, Lynchburg, Weather by CustomWeather, © 2015

Note: Actual official high and low records may vary slightly from our data, if they occured in-between our weather recording intervals... More about our weather records

Advertising

Lynchburg weather history for previous 24 hours

 ConditionsComfort  
Time TempWeatherWind HumidityBarometerVisibility
2:54 PM
Fri, Jul 31
84 °FSunny.8 mph36%29.96 "Hg10 mi
1:54 PM83 °FSunny.5 mph38%29.98 "Hg10 mi
12:54 PM83 °FSunny.5 mph43%29.99 "Hg10 mi
11:54 AM82 °FSunny.N/A46%30.01 "Hg10 mi
10:54 AM81 °FSunny.5 mph51%30.01 "Hg10 mi
9:54 AM78 °FSunny.5 mph56%30.01 "Hg10 mi
8:54 AM76 °FSunny.5 mph60%30.01 "Hg10 mi
7:54 AM72 °FSunny.5 mph66%29.99 "Hg10 mi
6:54 AM68 °FClear.3 mph73%29.98 "Hg10 mi
5:54 AM69 °FPassing clouds.5 mph68%29.96 "Hg10 mi
4:54 AM71 °FPassing clouds.5 mph63%29.95 "Hg10 mi
3:54 AM72 °FPassing clouds.5 mph61%29.94 "Hg10 mi
2:54 AM72 °FPassing clouds.No wind64%29.95 "Hg10 mi
1:54 AM73 °FPassing clouds.3 mph64%29.95 "Hg10 mi
12:54 AM74 °FClear.3 mph62%29.96 "Hg10 mi
11:54 PM
Thu, Jul 30
76 °FPassing clouds.6 mph56%29.95 "Hg10 mi
10:54 PM74 °FClear.3 mph88%29.95 "Hg10 mi
9:54 PM76 °FClear.No wind85%29.93 "Hg10 mi
8:54 PM81 °FSunny.No wind74%29.90 "Hg10 mi
7:54 PM83 °FPassing clouds.No wind74%29.89 "Hg10 mi
6:54 PM88 °FSunny.No wind63%29.86 "Hg10 mi
5:54 PM88 °FSunny.6 mph61%29.86 "Hg10 mi
4:54 PM88 °FSunny.No wind59%29.87 "Hg10 mi
3:54 PM87 °FPassing clouds.No wind63%29.89 "Hg10 mi
Weather by CustomWeather, © 2015

See weather overviewHow to use our weather pages